Home > Weather > Zaandam > Past weeks

Flag for Netherlands Past Weather in Zaandam, Netherlands — Yesterday and Last 2 Weeks

Now
84 °F

Sunny.


Feels Like: 87 °F
Forecast: 68 / 85 °F
Wind: 8 mph from Southeast

Location: Amsterdam Schiphol Airport

Current Time: Aug 24, 2016 at 8:16:25 PM

Latest Report: Aug 24, 2016 at 7:25 PM


Visibility: 10 mi

Pressure: 30.07 "Hg

Humidity: 55%

Dew Point: 66 °F

Location of ZaandamLocation

Past Weather in Zaandam — Graph

°F

Zaandam Temperature Yesterday

Maximum temperature yesterday: 81 °F (at 4:25 PM)
Minimum temperature yesterday: 59 °F (at 6:55 AM)
Average temperature yesterday: 70 °F

High & Low Weather Summary for the Past Weeks

 TemperatureHumidityPressure
High86 °F (Aug 24, 3:25 PM)100% (Aug 10, 5:25 AM)30.30 "Hg (Aug 10, 5:25 AM)
Low48 °F (Aug 11, 12:25 AM)42% (Aug 23, 5:55 PM)29.74 "Hg (Aug 19, 3:55 PM)
Average64 °F78%30.07 "Hg
* Reported Aug 9 6:25 PM — Aug 24 6:55 PM, Zaandam, Weather by CustomWeather, © 2016

Note: Actual official high and low records may vary slightly from our data, if they occured in-between our weather recording intervals... More about our weather records

Advertising

Zaandam Weather History for the Previous 24 Hours

Scroll right to see more
 ConditionsComfort  
Time TempWeatherWind HumidityBarometerVisibility
6:55 PM
Wed, Aug 24
84 °FPassing clouds.7 mph58%30.07 "HgN/A
6:25 PM86 °FPassing clouds.10 mph52%30.07 "HgN/A
5:55 PM86 °FSunny.10 mph52%30.07 "Hg10 mi
5:25 PM86 °FPassing clouds.12 mph49%30.09 "HgN/A
4:55 PM86 °FPassing clouds.12 mph52%30.09 "HgN/A
4:25 PM86 °FPassing clouds.10 mph49%30.09 "HgN/A
3:55 PM86 °FPassing clouds.14 mph52%30.09 "HgN/A
3:25 PM86 °FPassing clouds.10 mph52%30.09 "HgN/A
2:55 PM84 °FPassing clouds.10 mph55%30.09 "HgN/A
2:25 PM84 °FPassing clouds.10 mph55%30.09 "HgN/A
1:55 PM82 °FPassing clouds.9 mph58%30.12 "HgN/A
1:25 PM82 °FPassing clouds.10 mph58%30.12 "HgN/A
12:55 PM82 °FPassing clouds.9 mph55%30.12 "HgN/A
12:25 PM81 °FPassing clouds.8 mph54%30.12 "HgN/A
11:55 AM81 °FPassing clouds.9 mph54%30.12 "HgN/A
11:25 AM79 °FPassing clouds.8 mph58%30.12 "HgN/A
10:55 AM77 °FPassing clouds.8 mph57%30.15 "HgN/A
10:25 AM75 °FSunny.8 mph65%30.15 "Hg10 mi
9:55 AM73 °FPassing clouds.7 mph65%30.15 "HgN/A
9:25 AM72 °FPassing clouds.6 mph73%30.15 "HgN/A
8:55 AM70 °FPassing clouds.8 mph73%30.15 "HgN/A
8:25 AM68 °FPassing clouds.7 mph78%30.15 "HgN/A
7:55 AM66 °FPassing clouds.6 mph83%30.15 "HgN/A
7:25 AM64 °FPassing clouds.5 mph88%30.15 "HgN/A
6:55 AM64 °FPassing clouds.3 mph83%30.15 "HgN/A
6:25 AM64 °FClear.6 mph83%30.15 "Hg10 mi
5:55 AM64 °FClear.6 mph83%30.15 "Hg10 mi
5:25 AM64 °FClear.8 mph88%30.15 "Hg10 mi
4:55 AM66 °FClear.8 mph83%30.15 "Hg10 mi
4:25 AM66 °FClear.9 mph83%30.15 "Hg10 mi
3:55 AM68 °FClear.9 mph78%30.15 "Hg10 mi
3:25 AM66 °FClear.9 mph83%30.15 "Hg10 mi
2:55 AM66 °FClear.8 mph83%30.15 "Hg10 mi
2:25 AM68 °FClear.10 mph78%30.18 "Hg10 mi
1:55 AM68 °FClear.9 mph78%30.18 "Hg10 mi
1:25 AM68 °FClear.9 mph78%30.18 "Hg10 mi
12:55 AM68 °FClear.9 mph78%30.18 "Hg10 mi
12:25 AM68 °FClear.9 mph78%30.21 "Hg10 mi
11:55 PM
Tue, Aug 23
70 °FClear.9 mph73%30.21 "Hg10 mi
11:25 PM70 °FClear.8 mph73%30.21 "Hg10 mi
10:55 PM68 °FClear.7 mph78%30.21 "Hg10 mi
10:25 PM66 °FClear.6 mph83%30.21 "Hg10 mi
9:55 PM68 °FClear.7 mph83%30.21 "Hg10 mi
9:25 PM68 °FSunny.7 mph83%30.21 "Hg10 mi
8:55 PM70 °FSunny.7 mph78%30.21 "Hg10 mi
8:25 PM72 °FSunny.6 mph73%30.21 "Hg10 mi
Weather by CustomWeather, © 2016

See weather overviewHow to use our weather pages